Albany, GA

6:42 AM EST on February 28, 2017 (GMT -0500)
Southwest Georgia Regional

Weather History for KABY - January, 2014

Change the Weather History Date:

Saturday, January 18, 2014

  Actual Average Record
Temperature  
Mean Temperature 39 °F 49 °F  
Max Temperature 51 °F 61 °F 79 °F (1947)
Min Temperature 27 °F 38 °F 12 °F (1977)
Degree Days  
Heating Degree Days 26 16  
Month to date heating degree days 341 288  
Since 1 July heating degree days 967 1001  
Cooling Degree Days 0 0  
Month to date cooling degree days 0 0  
Year to date cooling degree days 0 0  
Moisture  
Dew Point 13 °F    
Average Humidity 37    
Maximum Humidity 58    
Minimum Humidity 16    
Precipitation  
Precipitation 0.00 in 0.15 in 0.48 in (2011)
Month to date precipitation 1.29 2.39  
Year to date precipitation 1.29 2.39  
Sea Level Pressure  
Sea Level Pressure 30.21 in    
Wind  
Wind Speed 7 mph (West)    
Max Wind Speed 17 mph    
Max Gust Speed 24 mph    
Visibility 10 miles    
Events      
T = Trace of Precipitation, MM = Missing Value Source: NWS Daily Summary

Daily Weather History Graph

Daily Weather History Graph

Search for Another Location

Airport or City:

Trip Planner

Search our weather history database for the weather conditions in past years. The results will help you decide how hot, cold, wet, or windy it might be!

Date:

Astronomy

Jan. 18, 2014 Rise Set
Actual Time 7:35 AM EST 5:58 PM EST
Civil Twilight 7:09 AM EST 6:24 PM EST
Nautical Twilight 6:40 AM EST 6:54 PM EST
Astronomical Twilight 6:10 AM EST 7:23 PM EST
Moon 8:27 PM EST (1/18) 8:46 AM EST (1/18)
Length of Visible Light 11h 15m
Length of Day
10h 22m
Waning Gibbous, 94% of the Moon is Illuminated
Jan 18
Waning Gibbous
Jan 24
Last Quarter
Jan 30
New
Feb 6
First Quarter
Feb 14
Full

Hourly Weather History & Observations

Time (EST) Temp. Windchill Dew Point Humidity Pressure Visibility Wind Dir Wind Speed Gust Speed Precip Events Conditions
12:53 AM 41.0 °F 34.3 °F 9.0 °F 27% 30.17 in 10.0 mi NW 11.5 mph 18.4 mph N/A   Clear
1:53 AM 39.0 °F 31.4 °F 10.9 °F 32% 30.18 in 10.0 mi NW 12.7 mph 20.7 mph N/A   Clear
2:53 AM 37.0 °F 31.6 °F 12.0 °F 36% 30.20 in 10.0 mi NW 6.9 mph - N/A   Clear
3:53 AM 35.1 °F 28.6 °F 12.0 °F 39% 30.22 in 10.0 mi WNW 8.1 mph - N/A   Clear
4:53 AM 33.1 °F 27.7 °F 12.9 °F 43% 30.23 in 10.0 mi WNW 5.8 mph - N/A   Clear
5:53 AM 30.9 °F 25.2 °F 14.0 °F 50% 30.25 in 10.0 mi West 5.8 mph - N/A   Clear
6:53 AM 30.0 °F 25.2 °F 14.0 °F 51% 30.25 in 10.0 mi WNW 4.6 mph - N/A   Clear
7:53 AM 28.0 °F 24.2 °F 16.0 °F 61% 30.26 in 10.0 mi WSW 3.5 mph - N/A   Clear
8:53 AM 34.0 °F 28.0 °F 16.0 °F 48% 30.28 in 10.0 mi WNW 6.9 mph - N/A   Clear
9:53 AM 39.0 °F 33.4 °F 12.9 °F 34% 30.30 in 10.0 mi NW 8.1 mph - N/A   Clear
10:53 AM 42.1 °F 36.1 °F 9.0 °F 26% 30.31 in 10.0 mi West 10.4 mph - N/A   Clear
11:53 AM 44.1 °F 38.1 °F 9.0 °F 24% 30.30 in 10.0 mi NW 11.5 mph - N/A   Clear
12:53 PM 46.0 °F 41.9 °F 8.1 °F 21% 30.25 in 10.0 mi WNW 8.1 mph - N/A   Clear
1:53 PM 48.9 °F - 8.1 °F 19% 30.22 in 10.0 mi WNW 8.1 mph - N/A   Clear
2:53 PM 50.0 °F - 6.1 °F 17% 30.20 in 10.0 mi WNW 9.2 mph - N/A   Clear
3:53 PM 50.0 °F - 8.1 °F 18% 30.19 in 10.0 mi West 5.8 mph - N/A   Clear
4:53 PM 50.0 °F - 7.0 °F 18% 30.18 in 10.0 mi West 5.8 mph - N/A   Clear
5:53 PM 44.1 °F 40.1 °F 12.9 °F 28% 30.18 in 10.0 mi SSW 6.9 mph - N/A   Clear
6:53 PM 43.0 °F 40.3 °F 16.0 °F 34% 30.18 in 10.0 mi SSW 4.6 mph - N/A   Clear
7:53 PM 41.0 °F 38.0 °F 16.0 °F 36% 30.17 in 10.0 mi SSW 4.6 mph - N/A   Clear
8:53 PM 37.9 °F 34.4 °F 19.0 °F 47% 30.16 in 10.0 mi SSW 4.6 mph - N/A   Clear
9:53 PM 39.0 °F 34.8 °F 18.0 °F 43% 30.17 in 10.0 mi SW 5.8 mph - N/A   Clear
10:53 PM 37.9 °F 32.7 °F 19.9 °F 48% 30.15 in 10.0 mi SSW 6.9 mph - N/A   Clear
11:53 PM 37.0 °F 33.3 °F 21.9 °F 54% 30.13 in 10.0 mi WSW 4.6 mph - N/A   Clear